Find Starlink 31940

NORAD ID: 59873 Int'l Des: 2024-098 Owner: SPXS Country: US Constellation: starlink operational
LEOCIRCULAR

Current View

Loading 3D Globe...

About Starlink 31940

Starlink 31940 (NORAD 59873) is a starlink constellation satellite (v2 mini) launched May 24, 2024 by SPXS of US. It operates in LEO, CIRCULAR orbit with a mass of 730.00 kg.

Upcoming Passes

Passes for default location (London). Set your location on the main map for personalized predictions.

Altitude History

Loading altitude history...

Two-Line Element Set

1 59873U 24098R 26263.99537007 -.00001577 00000-0 -47830-4 0 9992
2 59873 43.0027 247.3951 0000869 273.0209 87.0543 15.27557318131801
Epoch: Sep 20, 2026 • Age: 14 hours

Current Status

Altitude 486.7 km
Apogee / Perigee N/A
Velocity 7.63 km/s
Sub-Earth Point 42.33°N, 104.34°E
Launch Date May 24, 2024
Age 2.3 years
Type internet

Technical Details

Classification Payload
Mass 730.00 kg
Dry Mass 700.00 kg
Length 0.30 m
Span 29.00 m
Shape ? Box + pan
Manufacturer SPXS
Bus Type Starlink V2M
Phase Status In Orbit
Owner/State SPXS/US

Most Searched